Stations météo

réclame
Mon MeteoGroup
Chillingham Barns, Grande-Bretagne (99196): Température de l'air & dewpoint: 01.07.2020 09:00:00 - 07.07.2020 09:00:00 (BST)Chillingham Barns, Grande-Bretagne (99196): Quantités de précipitations: 01.07.2020 09:00:00 - 07.07.2020 09:00:00 (BST)
Date & Time tt [°C] td [°C] rr [mm]
07.07.2020 09:00:00 12,6 8,0 0,0
07.07.2020 08:00:00 12,0 8,0 0,0
07.07.2020 07:00:00 11,5 7,3 0,0
07.07.2020 06:00:00 10,4 6,8 0,0
07.07.2020 05:00:00 9,2 5,8 0,0
07.07.2020 04:00:00 9,9 6,2 0,0
07.07.2020 03:00:00 10,2 6,5 0,0
07.07.2020 02:00:00 10,2 6,1 0,0
07.07.2020 01:00:00 10,0 5,7 0,0
07.07.2020 00:00:00 10,2 5,5 0,0
06.07.2020 23:00:00 11,0 5,4 0,0
06.07.2020 22:00:00 12,2 5,3 0,0
06.07.2020 21:00:00 13,0 5,1 0,0
06.07.2020 20:00:00 14,3 5,8 0,0
06.07.2020 19:00:00 15,8 6,2 0,0
06.07.2020 18:00:00 17,8 6,3 0,0
06.07.2020 17:00:00 17,6 8,0 0,0
06.07.2020 16:00:00 17,4 7,9 0,0
06.07.2020 15:00:00 17,0 6,9 0,0
06.07.2020 14:00:00 16,5 6,5 0,0
06.07.2020 13:00:00 16,4 7,6 0,0
06.07.2020 12:00:00 14,9 5,6 0,0
06.07.2020 11:00:00 14,7 5,8 0,0
06.07.2020 10:00:00 15,1 6,9 0,0
06.07.2020 09:00:00 13,9 8,2 0,0
06.07.2020 08:00:00 12,3 7,7 0,0
06.07.2020 07:00:00 12,1 8,0 0,0
06.07.2020 06:00:00 11,5 8,2 0,0
06.07.2020 05:00:00 10,3 7,4 0,0
06.07.2020 04:00:00 10,3 7,4 0,0
06.07.2020 03:00:00 10,9 6,8 0,0
06.07.2020 02:00:00 11,0 6,5 0,0
06.07.2020 01:00:00 10,7 6,6 0,0
06.07.2020 00:00:00 10,8 6,7 0,0
05.07.2020 23:00:00 11,0 7,0 0,0
05.07.2020 22:00:00 11,0 7,1 0,0
05.07.2020 21:00:00 11,9 7,4 0,0
05.07.2020 20:00:00 12,8 7,2 0,0
05.07.2020 19:00:00 11,8 7,7 0,0
05.07.2020 18:00:00 13,6 8,1 0,2
05.07.2020 17:00:00 9,7 6,9 1,0
05.07.2020 16:00:00 16,3 8,1 0,0
05.07.2020 15:00:00 15,8 7,3 0,0
05.07.2020 14:00:00 16,3 8,2 0,0
05.07.2020 13:00:00 16,5 6,9 0,0
05.07.2020 12:00:00 16,6 7,5 0,0
05.07.2020 11:00:00 15,5 7,4 0,0
05.07.2020 10:00:00 14,0 7,9 0,0
05.07.2020 09:00:00 14,9 9,3 0,0
05.07.2020 08:00:00 14,0 9,0 0,0
05.07.2020 07:00:00 14,0 8,6 0,0
05.07.2020 06:00:00 13,8 8,8 0,0
05.07.2020 05:00:00 14,8 10,1 0,0
05.07.2020 04:00:00 16,3 12,6 0,0
05.07.2020 03:00:00 16,7 13,2 0,0
05.07.2020 02:00:00 16,6 13,6 0,0
05.07.2020 01:00:00 15,0 14,0 0,0
05.07.2020 00:00:00 14,8 13,4 0,0
04.07.2020 23:00:00 15,0 12,9 0,0
04.07.2020 22:00:00 14,6 12,7 0,0
04.07.2020 21:00:00 15,2 12,1 0,0
04.07.2020 20:00:00 15,9 12,4 0,0
04.07.2020 19:00:00 15,8 12,7 0,0
04.07.2020 18:00:00 16,7 13,6 0,0
04.07.2020 17:00:00 16,1 13,8 0,0
04.07.2020 16:00:00 16,4 13,8 0,2
04.07.2020 15:00:00 15,4 13,5 0,2
04.07.2020 14:00:00 15,8 14,1 0,2
04.07.2020 13:00:00 14,3 13,0 0,8
04.07.2020 12:00:00 13,8 12,6 1,4
04.07.2020 11:00:00 13,8 12,4 0,0
04.07.2020 10:00:00 12,8 11,8 0,2
04.07.2020 09:00:00 12,5 11,0 0,0
04.07.2020 08:00:00 11,5 10,6 0,0
04.07.2020 07:00:00 11,1 10,1 0,4
04.07.2020 06:00:00 11,0 10,0 1,4
04.07.2020 05:00:00 11,1 10,0 2,6
04.07.2020 04:00:00 11,5 10,0 1,2
04.07.2020 03:00:00 11,9 9,7 0,2
04.07.2020 02:00:00 12,3 9,4 0,0
04.07.2020 01:00:00 12,2 9,9 0,0
04.07.2020 00:00:00 12,3 10,0 0,0
03.07.2020 23:00:00 12,4 10,5 0,0
03.07.2020 22:00:00 12,4 10,9 0,2
03.07.2020 21:00:00 13,1 11,8 0,2
03.07.2020 20:00:00 15,3 12,8 0,2
03.07.2020 19:00:00 15,7 12,8 0,0
03.07.2020 18:00:00 15,7 12,9 0,0
03.07.2020 17:00:00 15,9 12,4 0,0
03.07.2020 16:00:00 16,1 12,6 0,0
03.07.2020 15:00:00 14,9 12,4 0,2
03.07.2020 14:00:00 15,1 11,7 0,0
03.07.2020 13:00:00 15,1 11,8 0,0
03.07.2020 12:00:00 14,3 11,5 0,0
03.07.2020 11:00:00 13,8 11,2 0,0
03.07.2020 10:00:00 12,4 11,0 0,2
03.07.2020 09:00:00 11,4 10,0 0,0
03.07.2020 08:00:00 11,2 10,0 0,0
03.07.2020 07:00:00 11,0 9,7 0,6
03.07.2020 06:00:00 10,8 9,5 0,8
03.07.2020 05:00:00 11,1 9,5 0,4
03.07.2020 04:00:00 11,2 10,0 0,6
03.07.2020 03:00:00 11,6 9,6 0,2
03.07.2020 02:00:00 11,3 9,3 0,0
03.07.2020 01:00:00 11,7 9,2 0,0
03.07.2020 00:00:00 11,8 9,1 0,0
02.07.2020 23:00:00 11,7 8,6 0,0
02.07.2020 22:00:00 12,5 8,2 0,0
02.07.2020 21:00:00 12,5 7,7 0,0
02.07.2020 20:00:00 12,7 7,3 0,0
02.07.2020 19:00:00 13,1 7,1 0,0
02.07.2020 18:00:00 13,3 6,7 0,0
02.07.2020 17:00:00 13,5 7,1 0,0
02.07.2020 16:00:00 13,7 6,7 0,0
02.07.2020 15:00:00 13,8 6,9 0,0
02.07.2020 14:00:00 13,8 7,3 0,0
02.07.2020 13:00:00 14,3 6,8 0,0
02.07.2020 12:00:00 14,6 6,3 0,0
02.07.2020 11:00:00 14,4 6,4 0,0
02.07.2020 10:00:00 14,1 7,0 0,0
02.07.2020 09:00:00 12,4 8,1 0,0
02.07.2020 08:00:00 11,3 7,8 0,0
02.07.2020 07:00:00 10,6 8,6 0,0
02.07.2020 06:00:00 10,0 8,9 0,0
02.07.2020 05:00:00 9,8 8,7 0,0
02.07.2020 04:00:00 9,8 8,7 0,0
02.07.2020 03:00:00 9,8 8,6 0,0
02.07.2020 02:00:00 9,8 8,6 0,0
02.07.2020 01:00:00 9,9 8,5 0,0
02.07.2020 00:00:00 10,1 8,3 0,0
01.07.2020 23:00:00 10,4 8,0 0,2
01.07.2020 22:00:00 10,9 8,7 0,0
01.07.2020 21:00:00 11,4 8,4 0,0
01.07.2020 20:00:00 11,7 8,0 0,0
01.07.2020 19:00:00 12,3 7,9 0,0
01.07.2020 18:00:00 12,3 7,9 0,0
01.07.2020 17:00:00 12,3 8,5 0,0
01.07.2020 16:00:00 12,1 9,6 0,0
01.07.2020 15:00:00 11,9 10,1 0,0
01.07.2020 14:00:00 12,3 10,6 0,0
01.07.2020 13:00:00 12,1 11,0 0,0
01.07.2020 12:00:00 12,0 10,8 0,0
01.07.2020 11:00:00 12,0 10,8 0,2
01.07.2020 10:00:00 11,5 10,4 0,0
01.07.2020 09:00:00 12,6 11,3 0,2

tt = Température de l'air
td = dewpoint
rr = Quantités de précipitations

stations d'obs. à proximité